GOES 19

Last updated on Thu Oct 30 2025 00:02:23 GMT+0000 (Coordinated Universal Time)

1 60133U 24119A 25302.46176447 -.00000239 00000+0 00000+0 0 9994 2 60133 0.0082 50.7520 0000710 230.1017 208.2777 1.00272367 4652
UTC large
Height (km)
Speed (km/s)
/
Latitude / Longitude
Inclination (degrees)
Orbital Period (minutes)
Azimuth
Elevation
Range (km)
Doppler Factor

Next 0 passes for location: London (51.5072 / 0.1276)

Sorry there are no passes over London.